Theta_e
308 308 309 310 310 310 310 310 310 310 310 310 311 312 313 314 316 316 318 322 323 323 323 324 326 326 327 326 326 327 322 324 323 316 315 317 315 317 318 318 318 319 318 318 317
308 308 308 309 309 309 309 310 310 311 311 310 310 311 313 313 315 316 317 319 322 323 323 323 326 326 325 324 325 323 321 323 320 315 316 316 315 317 318 318 316 317 317 316 316
308 308 308 308 308 309 309 309 310 310 311 311 310 310 311 313 314 316 317 318 319 323 322 323 324 323 323 323 323 322 323 320 322 320 318 316 315 317 317 317 317 317 316 315 315
307 308 308 308 308 308 309 309 309 310 310 311 311 310 311 311 314 321 321 322 318 321 322 322 322 322 320 320 322 322 322 321 322 322 317 314 316 318 318 318 319 318 317 316 315
307 307 308 308 308 308 308 309 309 309 310 310 311 311 310 310 313 318 323 321 321 321 322 322 323 322 320 320 321 321 320 319 319 318 318 318 317 317 318 319 319 318 316 316 315
307 308 308 308 307 308 308 308 308 309 309 310 311 311 310 311 314 314 316 317 318 322 323 323 323 324 322 322 321 323 319 318 317 317 317 316 316 318 319 319 318 317 316 315 315
304 305 307 308 308 308 308 308 308 309 309 310 311 310 310 311 313 315 319 317 317 322 322 323 323 323 323 321 322 319 319 317 317 316 316 317 316 316 318 318 317 316 316 315 315
301 301 302 305 307 308 309 308 308 309 309 310 310 311 311 312 313 314 314 321 319 320 323 323 324 323 322 323 320 319 316 318 317 316 317 316 316 316 317 317 316 316 315 315 315
303 301 300 301 303 306 308 309 309 309 309 310 311 313 312 313 313 315 314 315 320 322 322 323 322 322 319 319 318 316 320 318 318 315 316 315 316 316 317 317 316 315 314 315 315
306 305 304 301 300 302 306 309 310 309 312 311 313 311 312 313 314 314 315 316 317 320 322 322 322 317 314 316 319 320 319 319 318 318 315 315 314 314 317 317 316 315 314 315 315
307 307 304 301 301 300 302 308 310 317 317 313 312 311 316 315 316 318 317 316 322 322 319 320 318 317 317 317 319 319 319 319 319 318 317 316 315 317 316 316 315 315 314 315 315
306 304 306 304 302 300 301 305 310 309 310 314 315 314 313 313 314 315 319 321 321 319 318 318 319 317 317 318 318 318 318 318 317 317 316 317 316 315 315 316 316 315 314 315 315
307 305 304 305 304 303 301 303 309 308 310 315 315 315 315 314 315 315 318 321 319 318 318 319 320 318 319 319 319 318 319 318 318 318 315 316 315 316 315 316 317 316 316 315 315
307 306 305 303 305 303 301 304 307 310 313 314 315 316 317 317 316 315 315 322 320 320 318 319 319 320 319 320 319 320 318 318 318 318 317 315 316 315 316 316 317 315 315 315 315
306 307 305 303 305 302 304 305 310 313 308 312 316 317 317 317 316 316 315 321 319 320 319 322 319 319 320 320 318 320 319 318 318 317 316 317 314 315 318 319 316 315 314 315 315
305 306 306 304 303 305 303 306 312 314 316 314 316 316 315 316 316 317 318 319 320 318 318 320 320 318 319 319 318 319 318 315 314 313 315 315 315 315 316 318 318 316 315 316 315
303 305 306 305 303 304 303 305 314 315 313 313 314 315 316 316 316 316 317 317 318 319 319 319 318 319 320 320 317 316 314 316 316 316 318 316 316 316 317 316 317 318 315 316 315
302 304 306 306 304 304 303 309 315 314 313 314 313 315 316 315 316 315 315 318 316 318 318 320 321 319 318 319 318 314 314 315 317 315 315 318 320 319 318 321 321 321 319 316 316
302 303 306 306 305 303 304 310 312 313 313 313 314 315 316 316 316 316 315 317 317 317 320 319 320 319 318 318 318 317 315 314 315 317 318 317 319 321 324 323 320 317 316 315 316
303 303 305 307 305 303 302 308 312 313 313 313 314 313 315 315 316 316 315 316 316 317 317 318 320 318 319 318 317 318 315 317 313 318 319 318 321 323 321 324 321 317 315 316 316
303 304 305 306 304 303 302 304 307 313 313 313 313 313 314 314 315 315 316 317 317 316 318 316 318 320 319 320 319 318 318 317 313 314 316 316 320 318 323 325 325 319 316 317 317
302 304 304 306 304 304 304 304 306 309 314 313 312 312 313 313 314 315 316 316 318 317 317 316 316 318 323 321 321 318 317 319 318 318 318 317 320 320 323 325 325 322 318 318 317
303 303 304 305 306 305 303 305 304 307 311 312 312 313 313 314 315 315 316 316 317 317 316 315 315 317 318 326 324 324 323 319 319 319 324 324 321 321 324 325 324 323 319 318 317
300 303 301 302 305 304 304 304 304 305 307 309 311 311 312 314 313 315 317 316 317 317 317 318 314 317 320 319 325 326 327 323 321 322 322 325 324 324 325 327 323 321 320 318 318
300 301 302 304 305 303 302 303 305 304 306 309 310 311 312 313 313 313 314 314 315 316 319 315 316 317 317 317 322 322 324 325 323 321 324 323 325 323 324 326 324 323 318 317 317
300 301 301 300 304 305 304 304 303 305 303 307 309 311 310 311 311 313 313 313 314 310 315 316 317 316 318 318 318 321 321 325 324 323 325 323 324 322 325 327 326 324 319 318 319
299 301 302 302 305 305 305 305 306 305 306 306 308 308 307 309 309 310 310 310 310 311 309 316 320 319 319 323 322 323 321 325 324 323 322 325 323 322 326 326 326 326 323 322 320
Wind_Speed
14 16 17 16 15 14 16 16 16 17 16 17 18 18 17 18 19 25 34 29 22 18 15 13 15 13 12 7 9 5 3 3 5 3 7 4 3 4 8 10 8 9 6 7 12
17 16 16 16 16 16 17 17 17 16 16 16 17 18 18 18 20 31 35 25 25 20 20 18 16 14 6 5 7 5 3 7 7 6 6 6 7 12 5 6 3 8 9 12 11
18 17 16 17 17 17 18 17 18 17 16 17 17 16 15 15 18 35 26 22 27 24 20 18 8 5 5 6 7 6 5 7 12 15 14 8 6 11 7 4 12 17 18 15 13
19 19 19 18 18 18 17 17 18 17 16 16 17 16 14 11 6 4 9 7 21 24 22 21 16 6 3 5 8 3 13 9 12 17 8 7 8 6 16 12 12 15 14 15 13
23 22 21 20 20 20 19 18 19 18 17 16 17 15 14 12 28 10 6 6 9 24 25 24 19 9 4 5 5 6 5 3 7 11 14 9 8 5 17 14 8 16 17 15 13
25 25 23 22 21 22 21 20 20 19 17 17 17 15 14 11 22 20 30 27 15 21 27 26 23 24 7 7 6 7 6 1 2 4 7 7 2 5 11 12 16 19 19 17 13
25 25 24 24 24 23 22 22 20 20 19 19 18 17 19 33 14 9 10 22 19 13 28 27 25 12 7 6 6 1 2 5 2 5 3 4 3 9 12 18 19 22 19 16 12
25 24 25 25 25 25 24 21 21 21 21 19 18 17 16 22 16 25 25 12 12 17 21 24 20 20 12 10 3 3 4 3 4 5 3 8 10 6 15 23 23 22 20 17 13
26 24 24 24 25 25 24 21 20 21 20 18 15 11 13 13 19 21 22 23 11 13 13 13 6 9 4 2 3 7 3 4 6 9 3 5 9 3 13 28 24 23 21 17 13
25 25 24 23 23 23 23 19 17 17 13 7 8 5 19 11 10 17 17 20 15 12 11 9 5 3 2 3 5 4 3 3 4 3 4 3 13 6 9 26 24 24 22 19 15
24 24 23 22 20 19 17 10 6 3 9 11 6 9 4 2 6 9 14 19 13 10 7 7 4 8 9 7 5 4 3 5 4 5 5 7 9 16 11 19 15 24 25 22 17
25 21 21 22 19 15 12 3 5 4 12 17 29 31 29 26 11 11 15 16 10 6 7 4 12 7 7 4 4 3 3 5 5 3 6 8 10 8 8 13 27 29 29 25 20
26 23 22 21 19 14 9 7 6 10 6 11 26 32 39 25 18 26 13 15 5 7 7 9 4 8 7 5 4 5 3 5 7 2 3 1 6 5 5 7 13 21 27 28 24
27 24 21 20 12 11 7 6 7 6 4 7 8 14 26 21 9 31 22 17 3 14 9 7 6 8 5 5 8 4 8 6 4 2 5 4 5 6 6 6 7 19 29 30 27
28 23 21 17 9 4 4 8 6 5 5 6 7 5 19 23 16 14 29 18 10 7 7 10 8 6 5 10 7 10 3 5 3 4 2 2 2 6 2 6 10 17 30 33 29
27 23 22 20 16 16 10 2 7 4 11 5 6 8 7 11 15 12 20 17 14 6 3 10 9 10 12 8 9 3 3 6 4 4 1 7 7 5 5 8 7 5 27 35 32
27 25 24 22 13 9 10 5 3 7 2 6 7 7 11 6 8 10 13 13 11 8 11 4 5 4 6 5 3 5 6 4 4 3 6 3 3 8 8 10 9 9 26 36 34
27 26 26 25 16 13 6 2 9 9 12 3 5 6 9 8 11 9 8 15 14 7 6 10 9 10 4 8 10 7 9 5 6 3 5 3 5 6 7 8 14 13 20 34 35
24 25 28 27 19 12 8 8 13 7 13 4 3 5 5 8 7 10 18 16 13 13 17 8 8 3 7 5 11 5 4 6 4 1 2 3 7 10 4 4 4 11 21 32 37
25 25 28 26 21 14 3 25 8 6 5 24 9 6 10 7 9 17 14 16 13 9 6 6 2 5 7 5 1 9 6 2 2 2 4 4 4 6 9 5 5 7 18 31 36
21 11 14 30 25 16 8 14 21 13 4 15 23 7 7 8 10 8 7 9 21 10 12 6 6 4 6 7 9 3 3 4 4 4 5 3 6 6 6 9 8 10 24 33 39
21 5 13 35 8 7 16 8 8 23 9 3 3 8 8 7 9 11 12 12 19 14 13 8 7 6 8 3 5 7 10 9 5 5 3 4 8 6 7 9 8 11 21 29 36
9 7 17 40 10 12 15 11 12 9 6 2 3 4 4 6 4 5 6 7 15 17 12 8 3 3 5 3 1 4 5 5 5 4 7 5 6 3 4 3 3 9 17 25 32
7 5 8 22 15 14 16 17 7 24 12 1 3 4 2 5 1 4 2 3 3 6 20 20 6 11 15 5 6 5 5 6 7 5 5 6 5 5 2 4 2 6 14 22 33
8 2 2 4 9 11 6 3 21 8 11 3 3 4 3 4 4 4 2 2 4 4 4 7 8 6 5 10 11 13 8 12 9 8 8 8 9 7 4 4 8 10 16 23 30
7 3 2 3 18 15 8 4 16 20 3 11 4 3 5 4 4 3 3 2 2 7 4 0 4 8 7 9 13 11 16 15 17 3 2 6 5 7 6 6 5 12 21 27 31
9 11 6 1 4 9 12 13 5 2 2 6 4 2 5 1 6 10 12 10 4 1 2 1 4 4 5 5 7 16 15 13 8 5 9 7 9 7 5 8 13 13 20 26 30
Wind_Direction
298 298 308 310 305 306 305 306 310 311 314 314 307 298 288 279 267 257 250 240 238 241 248 268 247 231 217 211 217 192 76 218 248 199 250 204 167 206 200 163 191 197 243 246 193
300 304 301 297 299 299 298 303 306 307 309 309 306 300 294 291 281 259 251 245 238 234 249 248 224 220 200 189 180 145 139 220 199 199 236 213 195 176 188 159 172 188 196 176 191
293 294 294 294 294 293 294 297 300 304 306 306 304 299 297 295 295 268 273 257 240 232 240 241 224 222 209 213 199 190 203 210 236 234 239 210 214 185 165 252 215 204 177 182 200
292 293 292 290 288 288 290 291 292 295 300 302 301 298 291 281 247 333 148 216 223 221 230 231 239 222 212 219 191 185 242 229 263 234 181 188 182 205 188 229 259 232 203 193 207
286 286 287 288 287 287 286 284 286 290 294 295 293 294 288 264 246 236 225 358 219 208 221 228 230 226 229 234 167 191 261 300 247 193 204 200 205 198 217 247 237 194 194 202 210
283 286 289 289 287 285 285 285 287 288 287 287 287 287 272 256 271 253 253 261 273 215 220 225 232 243 262 232 174 227 219 64 159 194 206 167 205 187 238 215 187 195 201 209 212
279 279 281 283 285 285 285 286 290 289 285 282 281 279 261 252 252 276 276 253 254 241 221 232 233 191 228 280 278 81 120 38 251 166 232 139 303 237 228 191 194 197 202 202 200
280 282 280 279 279 281 282 284 289 287 283 281 278 271 250 274 259 251 249 225 234 232 230 238 242 242 260 272 56 96 53 101 278 157 245 159 263 264 224 193 200 198 198 198 198
285 285 282 280 281 281 282 285 291 290 286 279 265 239 263 258 247 248 243 241 227 227 225 224 217 234 260 201 31 11 225 208 310 204 131 174 264 282 213 200 203 198 199 198 198
284 283 284 284 283 285 285 288 292 290 279 239 214 228 250 244 267 260 217 226 229 237 206 207 184 176 73 105 214 236 236 231 243 243 185 224 264 256 229 204 206 199 199 200 204
288 287 286 286 286 288 293 305 283 224 233 210 215 218 210 108 230 241 224 194 173 169 156 168 143 206 203 203 190 199 203 249 268 243 182 237 252 274 220 211 204 205 200 202 205
300 312 296 291 290 294 296 309 85 336 294 255 247 252 245 262 301 259 210 166 169 165 114 84 221 187 201 175 181 166 230 268 275 278 162 272 272 265 187 224 213 209 203 204 197
286 294 303 294 291 290 273 235 236 325 266 263 242 240 240 244 238 253 212 186 140 152 169 187 184 166 171 200 175 203 175 233 241 315 240 174 307 299 265 244 220 224 214 209 203
280 286 296 303 288 269 241 207 224 290 293 270 205 245 210 213 235 242 230 196 149 189 170 209 197 174 169 196 168 253 217 230 268 39 272 135 271 284 279 274 226 213 209 208 201
271 274 286 299 253 257 194 194 175 160 289 247 200 222 200 176 159 212 215 207 166 177 142 213 158 177 173 213 165 232 141 196 228 209 108 271 71 262 351 282 256 216 209 206 202
263 265 269 277 275 250 242 170 155 74 243 269 192 177 120 198 186 167 176 197 208 162 245 203 207 167 198 214 175 170 107 49 56 96 57 235 161 278 216 215 256 188 205 206 197
260 257 258 265 268 241 231 191 126 206 215 217 202 162 178 163 197 165 171 181 182 162 204 170 187 195 151 151 88 94 71 339 338 8 225 106 99 234 253 242 229 224 197 202 194
262 253 247 253 258 234 196 99 218 216 203 292 165 148 181 153 208 187 156 188 211 160 163 184 226 170 178 169 183 180 155 157 230 228 260 136 232 250 228 291 285 268 217 195 188
258 252 245 236 241 222 184 198 223 175 196 227 118 141 200 192 158 179 214 205 187 185 203 174 227 136 165 155 147 178 153 197 136 161 60 244 288 312 255 355 29 139 174 185 187
252 253 240 225 218 192 143 224 222 199 152 202 197 169 187 185 174 190 181 210 206 172 141 196 175 206 198 103 30 168 161 111 17 197 231 280 286 240 291 288 167 163 178 185 187
237 238 239 223 193 174 211 226 221 277 296 185 219 193 214 178 180 193 225 218 191 171 174 135 136 268 106 177 167 124 163 58 124 149 187 236 258 220 239 245 223 194 195 191 187
233 218 206 197 183 196 228 212 296 221 255 272 202 198 194 184 183 199 205 198 185 162 172 184 152 193 200 195 174 206 187 168 161 231 213 183 263 247 264 278 213 184 209 198 196
227 211 200 193 200 214 230 243 263 253 271 297 270 210 191 192 188 174 169 216 174 176 155 169 196 158 324 6 313 172 179 150 120 95 190 181 263 186 266 277 247 193 199 200 196
177 189 159 219 214 211 219 234 261 241 276 66 316 306 134 160 230 148 142 71 108 157 181 163 159 191 221 203 160 186 181 184 155 137 184 216 209 266 183 47 266 180 209 204 200
206 242 206 176 206 215 179 249 218 250 225 143 235 261 189 161 98 124 200 13 99 234 118 144 205 182 192 196 191 211 193 181 190 191 169 214 205 229 178 183 194 185 189 190 200
185 158 190 279 220 218 224 207 237 218 276 222 251 167 26 56 53 104 61 82 89 19 99 33 216 176 214 200 193 214 216 194 207 124 94 147 226 202 175 175 196 172 192 196 201
226 236 325 106 241 207 212 214 238 226 357 181 121 6 59 218 286 279 264 267 247 44 0 317 138 106 220 185 132 244 208 190 198 187 161 187 212 155 176 205 227 226 209 215 211